Greybull, WY

6:41 AM MST on December 10, 2019 (GMT -0700)
South Big Horn County

Weather History for KGEY - October, 2019

Change the Weather History Date:

Wednesday, October 2, 2019

  Actual Average Record
Temperature  
Mean Temperature 41 °F 51 °F  
Max Temperature 48 °F 66 °F 87 °F (2018)
Min Temperature 34 °F 37 °F 29 °F (2009)
Degree Days  
Heating Degree Days 24 14  
Month to date heating degree days 50 27  
Since 1 July heating degree days 225 258  
Cooling Degree Days 0 0  
Month to date cooling degree days 0 0  
Year to date cooling degree days 733 669  
Moisture  
Dew Point 33 °F    
Average Humidity 69    
Maximum Humidity 85    
Minimum Humidity 53    
Precipitation  
Precipitation T in 0.02 in 0.14 in (2013)
Month to date precipitation 0.02 0.05  
Year to date precipitation 7.34 6.38  
Sea Level Pressure  
Sea Level Pressure 30.14 in    
Wind  
Wind Speed 5 mph (NW)    
Max Wind Speed 12 mph    
Max Gust Speed 16 mph    
Visibility 10 miles    
Events Rain    
T = Trace of Precipitation, MM = Missing Value Source: NWS Daily Summary

Daily Weather History Graph

Daily Weather History Graph

Search for Another Location

Airport or City:

Astronomy

Oct. 02, 2019 Rise Set
Actual Time 7:11 AM MDT 6:51 PM MDT
Civil Twilight 6:42 AM MDT 7:20 PM MDT
Nautical Twilight 6:08 AM MDT 7:54 PM MDT
Astronomical Twilight 5:34 AM MDT 8:28 PM MDT
Moon 11:50 AM MDT (10/2) 9:37 PM MDT (10/2)
Length of Visible Light 12h 38m
Length of Day
11h 40m
Waxing Crescent, 21% of the Moon is Illuminated
Oct 2
Waxing Crescent
Oct 5
First Quarter
Oct 13
Full
Oct 21
Last Quarter
Oct 27
New

Hourly Weather History & Observations

Time (MDT) Temp. Windchill Dew Point Humidity Pressure Visibility Wind Dir Wind Speed Gust Speed Precip Events Conditions
12:35 AM 37.0 °F 31.6 °F 33.1 °F 86% 30.08 in 10.0 mi NW 6.9 mph - N/A   Overcast
12:53 AM 37.0 °F 31.0 °F 33.1 °F 86% 30.14 in 10.0 mi NW 8.1 mph - N/A   Overcast
1:53 AM 37.0 °F 32.4 °F 33.1 °F 86% 30.13 in 10.0 mi WNW 5.8 mph - N/A   Overcast
2:53 AM 37.0 °F 31.6 °F 33.1 °F 86% 30.13 in 10.0 mi WNW 6.9 mph - N/A   Overcast
3:53 AM 37.0 °F 32.4 °F 33.1 °F 86% 30.12 in 10.0 mi West 5.8 mph - N/A   Overcast
4:17 AM 37.0 °F 31.6 °F 33.1 °F 86% 30.06 in 10.0 mi WNW 6.9 mph - N/A   Overcast
4:43 AM 37.0 °F 32.4 °F 33.1 °F 86% 30.05 in 10.0 mi NW 5.8 mph - N/A   Overcast
4:53 AM 37.0 °F 33.3 °F 33.1 °F 86% 30.10 in 10.0 mi NW 4.6 mph - N/A   Overcast
5:30 AM 37.0 °F 31.6 °F 33.1 °F 86% 30.05 in 10.0 mi NW 6.9 mph - N/A   Overcast
5:53 AM 37.0 °F 30.4 °F 33.1 °F 86% 30.10 in 10.0 mi NW 9.2 mph - N/A   Overcast
6:30 AM 37.0 °F 32.4 °F 33.1 °F 86% 30.05 in 10.0 mi NW 5.8 mph - N/A   Overcast
6:53 AM 37.0 °F 31.6 °F 33.1 °F 86% 30.12 in 10.0 mi West 6.9 mph - N/A   Overcast
7:03 AM 37.0 °F 31.6 °F 33.1 °F 86% 30.06 in 10.0 mi NW 6.9 mph - N/A   Overcast
7:37 AM 37.0 °F 31.6 °F 32.0 °F 82% 30.07 in 10.0 mi NNW 6.9 mph - N/A   Overcast
7:53 AM 37.0 °F 31.0 °F 32.0 °F 82% 30.13 in 10.0 mi NW 8.1 mph - N/A   Overcast
8:38 AM 37.0 °F - 33.1 °F 86% 30.07 in 10.0 mi Calm Calm - N/A   Overcast
8:53 AM 37.0 °F - 33.1 °F 86% 30.13 in 10.0 mi Calm Calm - N/A   Overcast
9:03 AM 37.0 °F - 33.1 °F 86% 30.07 in 10.0 mi Calm Calm - N/A   Overcast
9:19 AM 37.9 °F 33.5 °F 33.1 °F 83% 30.07 in 10.0 mi WNW 5.8 mph - N/A   Overcast
9:53 AM 37.0 °F 31.6 °F 33.1 °F 86% 30.15 in 10.0 mi WNW 6.9 mph - 0.00 in Rain Light Rain
10:15 AM 39.0 °F 34.8 °F 33.1 °F 79% 30.08 in 10.0 mi WNW 5.8 mph - 0.00 in   Overcast
10:53 AM 39.9 °F 35.8 °F 33.1 °F 77% 30.14 in 10.0 mi NW 5.8 mph - 0.00 in   Overcast
11:33 AM 41.0 °F 35.8 °F 34.0 °F 76% 30.09 in 10.0 mi NNW 8.1 mph - N/A   Overcast
11:53 AM 41.0 °F 35.8 °F 34.0 °F 76% 30.15 in 10.0 mi NNW 8.1 mph - N/A   Overcast
12:53 PM 42.1 °F 37.1 °F 34.0 °F 73% 30.15 in 10.0 mi North 8.1 mph - N/A   Overcast
1:53 PM 42.1 °F 37.1 °F 33.1 °F 70% 30.15 in 10.0 mi NW 8.1 mph - N/A   Overcast
2:53 PM 44.1 °F 42.5 °F 32.0 °F 63% 30.15 in 10.0 mi Variable 3.5 mph - N/A   Mostly Cloudy
3:53 PM 46.9 °F - 32.0 °F 56% 30.15 in 10.0 mi North 5.8 mph - N/A   Partly Cloudy
4:53 PM 46.9 °F - 30.9 °F 54% 30.17 in 10.0 mi Calm Calm - N/A   Clear
5:53 PM 46.0 °F 42.5 °F 33.1 °F 61% 30.19 in 10.0 mi SE 6.9 mph - N/A   Mostly Cloudy
6:53 PM 43.0 °F 38.2 °F 33.1 °F 68% 30.23 in 10.0 mi South 8.1 mph - N/A   Clear
7:53 PM 39.0 °F 34.8 °F 34.0 °F 82% 30.26 in 10.0 mi South 5.8 mph - N/A   Clear
8:53 PM 39.0 °F 35.7 °F 34.0 °F 82% 30.27 in 10.0 mi ESE 4.6 mph - N/A   Clear
9:53 PM 37.0 °F 33.3 °F 33.1 °F 86% 30.29 in 10.0 mi ESE 4.6 mph - N/A   Clear
10:53 PM 37.0 °F - 33.1 °F 86% 30.27 in 10.0 mi Calm Calm - N/A   Clear
11:53 PM 37.0 °F - 33.1 °F 86% 30.28 in 10.0 mi Calm Calm - N/A   Clear